Location: Catenanuova
(37.5690°N, 14.6870°E)
Time: 10:48:40
(UTC+02:00)

Hubble Space Telescope - Pass Details

Date: 29 May 2024
Orbit: 511 x 514 km, 28.5° (Epoch: 13 June)

Event Time Altitude Azimuth Distance (km) Brightness Sun altitude
Rises 22:28:45 0° 252° (WSW) 2,609 4.5 -20.9°
Reaches altitude 10° 22:31:24 10° 235° (SW) 1,722 3.4 -21.3°
Enters shadow 22:32:03 13° 228° (SW) 1,543 3.0 -21.3°
